Fitchburg, MA

7:39 PM EST on December 08, 2019 (GMT -0500)
Fitchburg Municipal

Weather History for KFIT - June, 2019

Change the Weather History Date:

Saturday, June 1, 2019

  Actual Average (WUND) Record (WUND)
Temperature  
Mean Temperature 63 °F -  
Max Temperature 77 °F - - (-1)
Min Temperature 51 °F - - (-1)
Degree Days  
Heating Degree Days 2    
Growing Degree Days 13 (Base 50)    
Moisture  
Dew Point 50 °F    
Average Humidity 66    
Maximum Humidity 89    
Minimum Humidity 38    
Precipitation  
Precipitation 0.00 in - - ()
Sea Level Pressure  
Sea Level Pressure 29.84 in    
Wind  
Wind Speed 3 mph (ENE)    
Max Wind Speed 12 mph    
Max Gust Speed -    
Visibility 10 miles    
Events      
Averages and records for this station are not official NWS values.
T = Trace of Precipitation, MM = Missing Value Source: NWS Daily Summary

Daily Weather History Graph

Daily Weather History Graph

Search for Another Location

Airport or City:

Astronomy

Jun. 01, 2019 Rise Set
Actual Time 5:12 AM EDT 8:17 PM EDT
Civil Twilight 4:38 AM EDT 8:51 PM EDT
Nautical Twilight 3:54 AM EDT 9:35 PM EDT
Astronomical Twilight 3:02 AM EDT 10:27 PM EDT
Moon 4:19 AM EDT (6/1) 6:24 PM EDT (6/1)
Length of Visible Light 16h 13m
Length of Day
15h 05m
Waning Crescent, 4% of the Moon is Illuminated
Jun 1
Waning Crescent
Jun 3
New
Jun 10
First Quarter
Jun 17
Full
Jun 25
Last Quarter

Hourly Weather History & Observations

Time (EDT) Temp. Dew Point Humidity Pressure Visibility Wind Dir Wind Speed Gust Speed Precip Events Conditions
12:52 AM 57.0 °F 52.0 °F 83% 29.81 in 10.0 mi Calm Calm - N/A   Overcast
1:52 AM 57.0 °F 51.1 °F 81% 29.81 in 10.0 mi Calm Calm - N/A   Partly Cloudy
2:52 AM 54.0 °F 50.0 °F 86% 29.81 in 10.0 mi Calm Calm - N/A   Clear
3:52 AM 53.1 °F 48.9 °F 86% 29.83 in 10.0 mi North 3.5 mph - N/A   Clear
4:52 AM 51.1 °F 48.0 °F 89% 29.85 in 10.0 mi NNW 3.5 mph - N/A   Clear
5:52 AM 51.1 °F 48.0 °F 89% 29.88 in 10.0 mi NW 3.5 mph - N/A   Clear
6:52 AM 55.0 °F 48.9 °F 80% 29.90 in 10.0 mi North 4.6 mph - N/A   Clear
7:52 AM 60.1 °F 48.0 °F 64% 29.89 in 10.0 mi NNW 5.8 mph - N/A   Clear
8:52 AM 62.1 °F 46.0 °F 56% 29.89 in 10.0 mi North 6.9 mph - N/A   Clear
9:52 AM 64.9 °F 48.0 °F 54% 29.88 in 10.0 mi Calm Calm - N/A   Clear
10:52 AM 68.0 °F 46.9 °F 47% 29.88 in 10.0 mi NE 3.5 mph - N/A   Clear
11:52 AM 70.0 °F 48.0 °F 46% 29.88 in 10.0 mi Variable 5.8 mph - N/A   Clear
12:52 PM 72.0 °F 50.0 °F 46% 29.86 in 10.0 mi Calm Calm - N/A   Clear
1:52 PM 73.9 °F 50.0 °F 43% 29.84 in 10.0 mi SE 9.2 mph - N/A   Clear
2:52 PM 75.9 °F 48.9 °F 38% 29.82 in 10.0 mi Variable 4.6 mph - N/A   Partly Cloudy
3:52 PM 75.0 °F 50.0 °F 41% 29.80 in 10.0 mi SSE 9.2 mph - N/A   Clear
4:52 PM 75.9 °F 51.1 °F 42% 29.80 in 10.0 mi SE 11.5 mph - N/A   Partly Cloudy
5:52 PM 73.0 °F 52.0 °F 48% 29.80 in 10.0 mi ESE 8.1 mph - N/A   Mostly Cloudy
6:52 PM 66.9 °F 51.1 °F 57% 29.81 in 10.0 mi ESE 8.1 mph - N/A   Clear
7:52 PM 63.0 °F 53.1 °F 70% 29.83 in 10.0 mi East 6.9 mph - N/A   Clear
8:52 PM 61.0 °F 53.1 °F 75% 29.84 in 10.0 mi Variable 3.5 mph - N/A   Clear
9:52 PM 59.0 °F 53.1 °F 81% 29.85 in 10.0 mi Calm Calm - N/A   Clear
10:52 PM 57.9 °F 53.1 °F 84% 29.85 in 10.0 mi East 4.6 mph - N/A   Clear
11:39 PM 57.0 °F 53.1 °F 87% 29.84 in 10.0 mi Calm Calm - N/A   Mostly Cloudy
11:52 PM 57.0 °F 53.1 °F 87% 29.84 in 10.0 mi Variable 3.5 mph - N/A   Overcast